Back to catalog

STARLINK-32918

AliveCommunicationsVLEO
NORAD 63087·PAYLOAD·🇺🇸 United States

Launched Feb 23, 2025 from Vandenberg Space Force Base

Loading…

Next Passes (next 24 hours)

TLE

FreshSource: CelesTrak SupGP

Epoch: Sep 14, 2026, 15:13 UTC

1 63087C 25037L   26257.63451389 -.00102970  00000+0 -35793-2 0  2578
2 63087  70.0005 236.3577 0003189 271.0541 203.3241 15.29656528    17

Track STARLINK-32918 in real time with AllMySat

Download on the App Store